Change the Weather History Date:

Sunday, November 30, 2014

  Actual Average Record
Temperature  
Mean Temperature 52 °F 39 °F  
Max Temperature 58 °F 47 °F 72 °F (1934)
Min Temperature 46 °F 30 °F 3 °F (1958)
Degree Days  
Heating Degree Days 13 26  
Month to date heating degree days 797 633  
Since 1 July heating degree days 1241 1140  
Cooling Degree Days 0 0  
Month to date cooling degree days 0 1  
Year to date cooling degree days 602 557  
Moisture  
Dew Point 42 °F    
Average Humidity 66    
Maximum Humidity 71    
Minimum Humidity 61    
Precipitation  
Precipitation 0.00 in 0.10 in 1.75 in (2010)
Month to date precipitation 2.20 2.95  
Year to date precipitation 34.22 38.19  
Snow  
Snow 0.00 in - - ()
Month to date snowfall 3.7  
Since 1 September snowfall 3.7  
Snow Depth 0.00 in    
Sea Level Pressure  
Sea Level Pressure 30.14 in    
Wind  
Wind Speed 11 mph (SW)    
Max Wind Speed 22 mph    
Max Gust Speed 30 mph    
Visibility 10 miles    
Events      
T = Trace of Precipitation, MM = Missing Value Source: NWS Daily Summary

Daily Weather History Graph

Daily Weather History Graph

Search for Another Location

Airport or City:

Trip Planner

Search our weather history database for the weather conditions in past years. The results will help you decide how hot, cold, wet, or windy it might be!

Date:

Astronomy

Nov. 30, 2014 Rise Set
Actual Time 7:20 AM EST 5:06 PM EST
Civil Twilight 6:51 AM EST 5:34 PM EST
Nautical Twilight 6:18 AM EST 6:07 PM EST
Astronomical Twilight 5:47 AM EST 6:38 PM EST
Moon 1:29 PM EST (11/30) 12:55 AM EST (11/30)
Length of Visible Light 10h 43m
Length of Day
9h 45m
Waxing Gibbous, 64% of the Moon is Illuminated
Nov 30
Waxing Gibbous
Dec 6
Full
Dec 14
Last Quarter
Dec 21
New
Dec 28
First Quarter

Hourly Weather History & Observations

Time (EST) Temp. Dew Point Humidity Pressure Visibility Wind Dir Wind Speed Gust Speed Precip Events Conditions
12:51 AM 46.9 °F 37.9 °F 71% 30.09 in 10.0 mi West 5.8 mph - N/A   Mostly Cloudy
1:51 AM 48.9 °F 39.0 °F 69% 30.10 in 10.0 mi SW 11.5 mph 17.3 mph N/A   Overcast
2:51 AM 48.9 °F 39.0 °F 69% 30.11 in 10.0 mi SSW 9.2 mph - N/A   Overcast
3:51 AM 48.9 °F 39.0 °F 69% 30.10 in 10.0 mi SSW 12.7 mph - N/A   Overcast
4:51 AM 50.0 °F 39.0 °F 66% 30.10 in 10.0 mi SW 10.4 mph 17.3 mph N/A   Overcast
5:51 AM 50.0 °F 39.9 °F 68% 30.10 in 10.0 mi SW 8.1 mph - N/A   Overcast
6:51 AM 50.0 °F 39.9 °F 68% 30.12 in 10.0 mi SSW 6.9 mph - N/A   Overcast
7:51 AM 51.1 °F 39.9 °F 66% 30.12 in 10.0 mi SW 12.7 mph 18.4 mph N/A   Overcast
8:51 AM 52.0 °F 41.0 °F 66% 30.14 in 10.0 mi SW 11.5 mph - N/A   Overcast
9:51 AM 53.1 °F 42.1 °F 66% 30.17 in 10.0 mi SW 12.7 mph 19.6 mph N/A   Overcast
10:51 AM 55.0 °F 42.1 °F 62% 30.16 in 10.0 mi SW 16.1 mph 21.9 mph N/A   Overcast
11:51 AM 55.9 °F 43.0 °F 62% 30.14 in 10.0 mi SW 15.0 mph 23.0 mph N/A   Overcast
12:51 PM 57.0 °F 44.1 °F 62% 30.12 in 10.0 mi WSW 16.1 mph 29.9 mph N/A   Overcast
1:51 PM 57.0 °F 44.1 °F 62% 30.11 in 10.0 mi WSW 10.4 mph 23.0 mph N/A   Overcast
2:51 PM 57.9 °F 44.1 °F 60% 30.11 in 10.0 mi SW 11.5 mph 20.7 mph N/A   Overcast
3:51 PM 57.0 °F 44.1 °F 62% 30.12 in 10.0 mi SW 10.4 mph - N/A   Overcast
4:51 PM 57.0 °F 44.1 °F 62% 30.13 in 10.0 mi SW 12.7 mph - N/A   Overcast
5:51 PM 55.9 °F 44.1 °F 64% 30.15 in 10.0 mi SW 13.8 mph - N/A   Overcast
6:51 PM 55.9 °F 45.0 °F 67% 30.17 in 10.0 mi SW 10.4 mph - N/A   Overcast
7:51 PM 55.9 °F 45.0 °F 67% 30.18 in 10.0 mi SW 8.1 mph - N/A   Overcast
8:51 PM 55.9 °F 45.0 °F 67% 30.19 in 10.0 mi SW 8.1 mph - N/A   Overcast
9:51 PM 55.9 °F 45.0 °F 67% 30.19 in 10.0 mi WSW 8.1 mph - N/A   Overcast
10:51 PM 55.9 °F 45.0 °F 67% 30.20 in 10.0 mi WSW 4.6 mph - N/A   Overcast
11:51 PM 55.9 °F 45.0 °F 67% 30.20 in 10.0 mi WSW 6.9 mph - N/A   Overcast